• In Hungary
  • List of Countries
  • For 7 days
  • Water Temperature
  • Satellite Maps
  • Weather Map
  • News
  • Weather Widgets
  • user-avatar
    Login

    Hourly Weather Kōriyama

    Today, 22 January, Monday

    Time Temperature Precipitation Wind Pressure Humidity
    00:00 +4°C° 0 mm 1 mps 673 mmHg 72%
    01:00 +4°C° 0 mm 1 mps 673 mmHg 71%
    02:00 +4°C° 0 mm 1 mps 672 mmHg 71%
    03:00 +3°C° 0 mm 2 mps 672 mmHg 71%
    04:00 +2°C° 0 mm 2 mps 672 mmHg 70%
    05:00 +2°C° 0 mm 2 mps 671 mmHg 70%
    06:00 +2°C° 0 mm 2 mps 671 mmHg 70%
    07:00 +3°C° 0 mm 2 mps 671 mmHg 68%
    08:00 +3°C° 0 mm 2 mps 670 mmHg 67%
    09:00 +3°C° 0 mm 2 mps 670 mmHg 66%
    10:00 +4°C° 0 mm 4 mps 670 mmHg 60%
    11:00 +5°C° 0 mm 5 mps 670 mmHg 55%
    12:00 +5°C° 0 mm 6 mps 670 mmHg 49%
    13:00 +7°C° 0 mm 6 mps 669 mmHg 48%
    14:00 +7°C° 0 mm 6 mps 669 mmHg 47%
    15:00 +8°C° 0 mm 6 mps 668 mmHg 46%
    16:00 +7°C° 0 mm 5 mps 668 mmHg 50%
    17:00 +5°C° 0 mm 4 mps 668 mmHg 54%
    18:00 +4°C° 0 mm 4 mps 668 mmHg 58%
    19:00 +4°C° 0 mm 3 mps 668 mmHg 60%
    20:00 +3°C° 0 mm 3 mps 668 mmHg 61%
    21:00 +3°C° 0 mm 3 mps 668 mmHg 62%
    22:00 +3°C° 0 mm 4 mps 668 mmHg 63%
    23:00 +3°C° 0 mm 4 mps 668 mmHg 63%

    Tomorrow, 23 January, Tuesday

    Time Temperature Precipitation Wind Pressure Humidity
    00:00 +3°C° 0 mm 4 mps 668 mmHg 63%
    01:00 +1°C° 0 mm 4 mps 668 mmHg 63%
    02:00 +1°C° 0 mm 4 mps 667 mmHg 63%
    03:00 +1°C° 0 mm 4 mps 667 mmHg 63%
    04:00 +1°C° 0 mm 5 mps 667 mmHg 62%
    05:00 +1°C° 0 mm 5 mps 667 mmHg 62%
    06:00 +1°C° 0 mm 5 mps 666 mmHg 61%
    07:00 +1°C° 0 mm 6 mps 666 mmHg 59%
    08:00 +2°C° 0 mm 7 mps 666 mmHg 56%
    09:00 +2°C° 0 mm 7 mps 666 mmHg 54%
    10:00 +3°C° 0.2 mm 7 mps 666 mmHg 54%
    11:00 +3°C° 0.2 mm 7 mps 666 mmHg 53%
    12:00 +4°C° 0.2 mm 7 mps 666 mmHg 52%
    13:00 +3°C° 1.2 mm 6 mps 666 mmHg 60%
    14:00 +3°C° 1.2 mm 5 mps 666 mmHg 67%
    15:00 +3°C° 1.2 mm 4 mps 665 mmHg 74%
    16:00 +3°C° 0.4 mm 3 mps 665 mmHg 78%
    17:00 +2°C° 0.4 mm 3 mps 666 mmHg 82%
    18:00 +3°C° 0.4 mm 2 mps 666 mmHg 85%
    19:00 +3°C° 0.1 mm 2 mps 666 mmHg 87%
    20:00 +3°C° 0.1 mm 2 mps 666 mmHg 89%
    21:00 +3°C° 0.1 mm 2 mps 667 mmHg 91%
    22:00 +3°C° 0 mm 2 mps 667 mmHg 91%
    23:00 +4°C° 0 mm 1 mps 667 mmHg 92%

    Day after tomorrow, 24 January, Wednesday

    Time Temperature Precipitation Wind Pressure Humidity
    00:00 +4°C° 0 mm 1 mps 668 mmHg 93%
    01:00 +4°C° 0.1 mm 1 mps 668 mmHg 92%
    02:00 +4°C° 0.1 mm 1 mps 668 mmHg 92%
    03:00 +4°C° 0.1 mm 1 mps 668 mmHg 92%
    04:00 +4°C° 0 mm 1 mps 668 mmHg 93%
    05:00 +4°C° 0 mm 1 mps 669 mmHg 93%
    06:00 +3°C° 0 mm 1 mps 669 mmHg 94%
    07:00 +4°C° 0 mm 1 mps 669 mmHg 93%
    08:00 +4°C° 0 mm 1 mps 670 mmHg 91%
    09:00 +4°C° 0 mm 1 mps 670 mmHg 90%
    10:00 +4°C° 0 mm 2 mps 671 mmHg 86%
    11:00 +5°C° 0 mm 2 mps 671 mmHg 82%
    12:00 +6°C° 0 mm 2 mps 671 mmHg 77%
    13:00 +6°C° 0.2 mm 2 mps 671 mmHg 77%
    14:00 +7°C° 0.2 mm 3 mps 670 mmHg 76%
    15:00 +7°C° 0.2 mm 3 mps 670 mmHg 75%
    16:00 +6°C° 0.6 mm 2 mps 670 mmHg 79%
    17:00 +6°C° 0.6 mm 2 mps 670 mmHg 83%
    18:00 +5°C° 0.6 mm 2 mps 670 mmHg 88%
    19:00 +5°C° 1.2 mm 2 mps 670 mmHg 88%
    20:00 +5°C° 1.2 mm 2 mps 670 mmHg 89%
    21:00 +5°C° 1.2 mm 2 mps 670 mmHg 89%
    22:00 +4°C° 0.8 mm 3 mps 670 mmHg 88%
    23:00 +4°C° 0.8 mm 3 mps 670 mmHg 87%

    25 January, Thursday

    Time Temperature Precipitation Wind Pressure Humidity
    00:00 +4°C° 0.8 mm 4 mps 670 mmHg 86%
    01:00 +4°C° 0.7 mm 4 mps 669 mmHg 85%
    02:00 +4°C° 0.7 mm 4 mps 669 mmHg 84%
    03:00 +4°C° 0.7 mm 4 mps 669 mmHg 83%
    04:00 +4°C° 1.1 mm 4 mps 669 mmHg 84%
    05:00 +3°C° 1.1 mm 4 mps 669 mmHg 85%
    06:00 +2°C° 1.1 mm 5 mps 668 mmHg 86%
    07:00 +2°C° 1.8 mm 5 mps 668 mmHg 86%
    08:00 +2°C° 1.8 mm 5 mps 669 mmHg 86%
    09:00 +2°C° 1.8 mm 6 mps 669 mmHg 86%
    10:00 +3°C° 0.8 mm 6 mps 669 mmHg 83%
    11:00 +4°C° 0.8 mm 7 mps 669 mmHg 79%
    12:00 +5°C° 0.8 mm 7 mps 669 mmHg 76%
    13:00 +4°C° 1.4 mm 7 mps 668 mmHg 79%
    14:00 +4°C° 1.4 mm 6 mps 668 mmHg 81%
    15:00 +5°C° 1.4 mm 5 mps 667 mmHg 84%
    16:00 +5°C° 1.9 mm 5 mps 667 mmHg 83%
    17:00 +5°C° 1.9 mm 5 mps 667 mmHg 83%
    18:00 +5°C° 1.9 mm 4 mps 667 mmHg 83%
    19:00 +5°C° 0.4 mm 5 mps 667 mmHg 81%
    20:00 +5°C° 0.4 mm 5 mps 667 mmHg 80%
    21:00 +4°C° 0.4 mm 6 mps 667 mmHg 78%
    22:00 +4°C° 0.5 mm 6 mps 667 mmHg 80%
    23:00 +5°C° 0.5 mm 5 mps 666 mmHg 81%

    26 January, Friday

    Time Temperature Precipitation Wind Pressure Humidity
    00:00 +5°C° 0.5 mm 5 mps 666 mmHg 83%
    01:00 +3°C° 0.8 mm 5 mps 666 mmHg 84%
    02:00 +3°C° 0.8 mm 5 mps 666 mmHg 85%
    03:00 +4°C° 0.8 mm 4 mps 666 mmHg 86%
    04:00 +4°C° 0.3 mm 4 mps 666 mmHg 88%
    05:00 +3°C° 0.3 mm 3 mps 666 mmHg 89%
    06:00 +4°C° 0.3 mm 2 mps 666 mmHg 90%
    07:00 +4°C° 0.2 mm 2 mps 666 mmHg 89%
    08:00 +4°C° 0.2 mm 2 mps 666 mmHg 88%
    09:00 +5°C° 0.2 mm 2 mps 667 mmHg 87%
    10:00 +5°C° 0.3 mm 3 mps 667 mmHg 82%
    11:00 +7°C° 0.3 mm 3 mps 667 mmHg 76%
    12:00 +8°C° 0.3 mm 3 mps 667 mmHg 70%
    13:00 +8°C° 0.3 mm 3 mps 667 mmHg 68%
    14:00 +7°C° 0.3 mm 4 mps 667 mmHg 66%
    15:00 +7°C° 0.3 mm 4 mps 667 mmHg 64%
    16:00 +7°C° 0.3 mm 3 mps 667 mmHg 68%
    17:00 +7°C° 0.3 mm 3 mps 666 mmHg 73%
    18:00 +5°C° 0.3 mm 3 mps 666 mmHg 77%
    19:00 +5°C° 0.7 mm 2 mps 667 mmHg 78%
    20:00 +5°C° 0.7 mm 2 mps 667 mmHg 79%
    21:00 +5°C° 0.7 mm 2 mps 667 mmHg 81%
    22:00 +5°C° 0.4 mm 2 mps 667 mmHg 81%
    23:00 +5°C° 0.4 mm 2 mps 667 mmHg 81%

    27 January, Saturday

    Time Temperature Precipitation Wind Pressure Humidity
    00:00 +4°C° 0.4 mm 2 mps 667 mmHg 82%
    01:00 +4°C° 0.3 mm 2 mps 667 mmHg 82%
    02:00 +4°C° 0.3 mm 2 mps 668 mmHg 83%
    03:00 +4°C° 0.3 mm 2 mps 668 mmHg 83%
    04:00 +4°C° 0.1 mm 2 mps 668 mmHg 84%
    05:00 +3°C° 0.1 mm 2 mps 668 mmHg 84%
    06:00 +3°C° 0.1 mm 2 mps 668 mmHg 84%
    07:00 +3°C° 0 mm 2 mps 669 mmHg 83%
    08:00 +4°C° 0 mm 2 mps 669 mmHg 81%
    09:00 +4°C° 0 mm 2 mps 670 mmHg 79%
    10:00 +5°C° 0 mm 2 mps 670 mmHg 73%
    11:00 +6°C° 0 mm 2 mps 670 mmHg 67%
    12:00 +7°C° 0 mm 2 mps 671 mmHg 61%
    13:00 +7°C° 0 mm 3 mps 671 mmHg 59%
    14:00 +8°C° 0 mm 3 mps 671 mmHg 56%
    15:00 +8°C° 0 mm 3 mps 671 mmHg 54%
    16:00 +7°C° 0 mm 3 mps 671 mmHg 58%
    17:00 +5°C° 0 mm 3 mps 671 mmHg 62%
    18:00 +4°C° 0 mm 3 mps 671 mmHg 66%
    19:00 +3°C° 0 mm 3 mps 671 mmHg 67%
    20:00 +3°C° 0 mm 3 mps 671 mmHg 68%
    21:00 +2°C° 0 mm 3 mps 672 mmHg 70%
    22:00 +2°C° 0 mm 3 mps 672 mmHg 70%
    23:00 +1°C° 0 mm 3 mps 672 mmHg 70%
    Show more